Wind_Speed
43 42 41 41 41 39 38 37 37 36 36 36 37 37 37 38 39 39 40 40 40 41 42 43 44 44 44 43 41 39 37 35 34 32 30 28 26 25
44 44 43 42 40 39 39 39 38 37 37 37 37 38 38 39 39 39 40 41 41 41 42 44 44 44 43 42 40 38 36 34 33 31 29 27 26 24
46 45 42 41 41 41 40 40 39 38 37 37 38 38 38 39 40 41 41 41 41 42 43 43 44 43 42 41 39 37 35 33 32 30 29 27 25 24
46 46 45 43 42 41 41 40 39 38 38 38 38 39 40 40 40 41 42 42 42 42 43 43 42 41 40 39 37 35 34 32 31 30 29 27 25 23
48 47 45 43 41 40 40 40 39 39 39 39 39 40 41 41 41 41 42 42 42 42 42 42 41 40 38 37 36 34 33 32 31 30 28 26 24 23
46 45 42 41 41 41 41 40 40 40 41 40 40 40 40 41 41 42 42 42 41 41 41 40 39 38 37 36 34 34 33 32 31 29 27 26 25 24
43 42 42 42 41 42 42 42 42 43 42 41 41 40 41 41 41 41 41 41 40 40 40 39 38 36 36 35 34 33 32 31 30 29 27 25 24 23
43 43 43 43 42 43 43 43 42 41 40 40 40 40 41 41 41 41 40 40 40 39 38 37 36 35 34 34 33 32 31 30 29 28 26 25 24 23
42 43 44 43 43 43 42 41 40 40 40 40 40 40 40 40 40 40 40 39 38 37 36 35 35 34 34 33 32 31 30 30 28 27 26 25 24 23
44 44 44 44 44 43 42 41 40 40 40 40 41 40 40 40 39 39 38 37 37 36 35 34 34 34 33 32 31 30 29 28 27 26 26 25 24 24
42 42 42 42 42 42 41 41 41 41 41 40 40 39 39 38 38 38 37 36 36 35 35 34 34 34 33 32 31 29 28 28 27 26 26 25 25 25
40 40 40 41 42 41 40 40 40 40 40 39 38 38 38 38 37 37 36 36 35 35 35 34 34 33 32 31 30 29 28 27 27 27 26 25 25 26
41 41 41 41 41 41 40 40 39 39 39 38 38 38 38 37 37 37 36 36 35 35 35 34 33 33 32 31 30 29 28 27 27 26 26 26 26 26
40 40 40 40 41 40 40 40 39 39 39 39 38 38 37 37 37 37 36 36 35 35 35 34 33 32 31 30 30 29 28 28 27 27 27 27 27 27
39 39 39 39 39 40 40 39 39 39 39 38 38 37 37 37 37 37 36 36 35 35 34 34 33 32 31 30 30 29 29 28 27 27 27 27 27 27
39 39 40 40 39 38 39 39 39 39 38 37 37 36 36 36 36 36 36 35 34 34 34 33 32 32 31 30 30 29 29 28 28 27 27 27 27 28
38 39 39 39 38 38 38 38 38 38 37 37 37 36 36 36 36 35 35 34 33 33 33 32 31 31 30 30 29 29 29 29 28 28 28 28 28 29
38 38 38 38 38 38 38 38 38 37 37 37 37 36 36 36 35 35 35 34 34 33 32 31 31 31 31 30 30 30 30 29 29 29 29 29 29 30
38 37 37 37 38 38 37 37 37 37 37 37 37 36 36 35 35 35 34 34 34 33 32 32 32 31 31 31 30 30 30 30 30 30 30 30 30 31
38 38 38 38 37 37 37 37 37 36 36 36 36 36 35 35 35 34 34 34 33 33 33 32 32 32 31 31 30 30 30 30 30 30 30 31 31 32
38 38 38 38 38 38 38 37 37 37 36 36 36 36 36 35 35 34 34 33 33 33 33 33 32 32 32 31 31 31 31 31 31 31 31 31 32 32
38 39 39 39 39 39 38 38 38 37 37 37 36 36 36 35 35 35 34 33 33 33 33 33 33 33 32 32 32 33 33 33 33 32 33 33 33 32
38 38 38 38 38 39 38 38 38 38 37 37 36 36 36 35 35 35 35 34 34 34 34 34 34 34 34 34 34 34 34 34 34 34 34 34 34 34
Wind_Direction
263 266 269 269 270 271 271 271 274 275 277 280 284 286 287 289 291 293 294 294 296 296 298 299 299 300 300 300 299 298 298 296 296 295 294 292 289 285
263 266 267 268 269 269 268 270 273 274 276 280 283 285 286 288 289 291 292 293 294 296 298 299 298 299 299 299 298 297 296 295 295 294 293 290 285 281
262 263 263 265 268 268 268 269 271 273 276 280 282 283 285 286 288 289 290 292 293 295 297 297 298 299 298 298 297 296 294 294 293 293 290 287 283 279
260 261 263 265 266 267 268 269 270 273 276 279 280 282 283 284 286 287 289 290 292 294 295 296 297 297 297 297 296 295 293 292 292 291 288 285 282 277
259 260 262 263 263 265 267 268 270 273 276 278 279 281 282 283 285 286 287 289 291 293 294 295 296 296 296 296 295 293 292 291 290 289 285 282 279 275
256 258 259 260 262 264 266 268 271 273 275 278 279 281 283 284 285 287 288 289 291 292 293 294 294 295 295 295 294 292 291 288 287 286 283 280 276 271
255 256 258 261 263 265 266 269 271 273 275 277 278 281 283 285 286 287 288 289 290 291 292 292 293 293 293 293 292 291 289 287 285 283 280 277 273 268
256 257 259 261 264 265 267 269 271 272 274 275 278 281 282 284 285 286 288 289 289 290 290 290 291 291 291 291 290 290 288 286 283 281 277 275 270 267
256 257 259 260 262 264 267 268 269 271 273 276 278 280 281 283 285 286 287 287 288 289 289 289 289 289 289 288 289 289 288 287 283 279 273 273 268 266
256 258 259 260 261 263 264 266 269 272 274 276 277 279 281 283 284 285 286 286 287 287 287 288 287 287 286 287 287 287 287 285 282 277 273 270 266 263
256 257 258 259 260 262 264 266 269 271 273 275 277 279 281 282 283 284 284 285 285 285 285 285 286 285 285 285 285 285 284 283 278 274 271 268 265 261
256 257 258 260 261 263 264 267 268 270 272 274 276 278 279 280 281 282 283 283 283 283 283 284 284 284 284 284 283 283 282 281 278 275 271 267 265 262
256 257 259 260 262 263 265 267 268 269 270 272 274 275 276 278 279 280 280 281 282 282 283 283 283 283 283 282 281 281 281 279 277 274 270 267 265 263
256 257 259 261 262 263 264 265 266 268 270 271 272 273 275 276 278 278 279 280 281 281 282 281 281 282 282 281 280 280 279 278 275 273 271 269 266 264
256 258 259 261 261 262 263 264 265 267 269 270 270 271 273 275 277 277 278 279 280 280 280 280 279 280 281 280 279 278 276 275 274 272 271 269 267 265
257 258 259 260 261 262 262 262 264 265 268 268 269 271 273 275 276 277 277 278 279 279 279 279 279 279 279 278 277 277 275 274 273 271 270 269 267 265
258 258 259 259 259 260 262 262 263 265 266 267 269 272 273 275 276 276 276 277 278 278 278 278 278 278 278 277 277 276 275 274 272 270 269 268 267 266
258 258 259 259 259 260 261 262 263 265 266 267 269 271 273 274 275 275 276 276 277 277 277 277 277 277 277 277 276 275 274 273 272 270 269 268 268 267
257 257 258 258 259 259 260 262 264 265 266 268 269 270 272 274 274 275 275 276 276 276 275 275 276 276 276 276 276 275 273 272 272 272 271 270 270 268
256 256 256 257 258 259 260 262 263 265 267 268 269 270 272 273 274 274 275 275 275 275 274 275 275 276 275 275 274 274 273 273 273 273 272 272 271 269
256 256 256 256 258 259 260 261 263 264 266 268 269 270 271 272 273 274 274 274 274 274 274 274 275 275 275 274 273 273 273 273 273 273 273 273 271 269
255 256 256 256 258 259 260 262 263 264 265 267 269 269 270 271 272 272 273 274 274 274 274 274 274 274 274 274 274 273 274 273 273 273 273 273 271 269
255 256 256 257 258 259 260 261 262 263 265 266 267 268 269 270 271 272 272 273 273 273 274 274 274 273 273 274 274 274 274 273 273 273 273 272 271 270
Height
5756 5757 5759 5759 5760 5761 5761 5761 5762 5762 5761 5760 5759 5757 5755 5754 5752 5750 5747 5744 5741 5738 5734 5731 5727 5723 5719 5715 5712 5709 5706 5704 5702 5700 5698 5697 5695 5695
5745 5746 5748 5749 5750 5750 5751 5751 5751 5752 5752 5751 5749 5748 5746 5744 5742 5740 5737 5735 5732 5728 5725 5721 5717 5713 5710 5706 5703 5701 5698 5696 5694 5692 5691 5690 5688 5688
5733 5735 5736 5738 5739 5740 5740 5741 5741 5741 5741 5740 5739 5737 5736 5734 5732 5730 5728 5725 5722 5719 5715 5712 5708 5704 5701 5698 5695 5692 5690 5688 5686 5685 5683 5682 5681 5681
5722 5724 5725 5727 5728 5729 5729 5730 5730 5730 5730 5729 5728 5726 5725 5723 5722 5720 5717 5715 5712 5709 5705 5702 5698 5695 5691 5689 5686 5684 5682 5680 5678 5677 5676 5675 5674 5674
5710 5712 5714 5715 5716 5717 5718 5718 5719 5719 5719 5718 5717 5716 5714 5712 5711 5709 5706 5704 5701 5698 5695 5692 5688 5685 5682 5680 5677 5675 5673 5672 5670 5669 5668 5667 5667 5667
5697 5699 5701 5703 5705 5706 5707 5707 5707 5707 5707 5707 5706 5705 5703 5702 5700 5698 5696 5693 5691 5688 5685 5682 5679 5676 5673 5671 5668 5666 5665 5663 5662 5661 5660 5659 5659 5660
5685 5687 5690 5691 5693 5694 5695 5696 5696 5696 5696 5695 5695 5694 5692 5691 5689 5687 5685 5682 5680 5677 5675 5672 5669 5667 5664 5662 5660 5658 5656 5655 5654 5653 5652 5652 5652 5652
5673 5676 5678 5680 5681 5682 5683 5683 5683 5684 5684 5684 5683 5682 5681 5680 5678 5676 5674 5672 5670 5668 5665 5662 5660 5658 5655 5653 5651 5649 5648 5646 5645 5645 5645 5644 5645 5645
5661 5663 5665 5667 5669 5670 5671 5671 5672 5672 5673 5672 5672 5671 5670 5669 5667 5665 5663 5661 5659 5657 5655 5653 5650 5649 5647 5645 5643 5641 5639 5638 5637 5637 5637 5637 5637 5638
5649 5651 5653 5655 5656 5658 5659 5660 5660 5661 5661 5661 5660 5659 5658 5657 5656 5654 5652 5650 5649 5647 5645 5644 5641 5639 5638 5636 5634 5633 5631 5630 5630 5629 5629 5629 5630 5631
5636 5638 5641 5642 5644 5645 5647 5648 5649 5649 5649 5649 5648 5648 5647 5646 5644 5643 5642 5640 5638 5637 5635 5634 5632 5630 5629 5627 5625 5624 5623 5622 5622 5621 5621 5622 5622 5623
5624 5627 5629 5630 5632 5634 5635 5636 5637 5638 5638 5637 5637 5636 5635 5634 5633 5632 5631 5630 5628 5627 5625 5624 5622 5621 5620 5618 5617 5616 5615 5614 5614 5613 5613 5614 5614 5615
5613 5615 5617 5619 5620 5622 5623 5625 5625 5626 5626 5626 5626 5625 5624 5623 5622 5621 5620 5619 5618 5617 5616 5614 5613 5612 5610 5609 5608 5607 5606 5606 5605 5605 5605 5606 5606 5607
5601 5603 5605 5607 5608 5610 5611 5613 5614 5614 5615 5615 5614 5614 5613 5613 5612 5611 5610 5609 5608 5607 5605 5604 5603 5602 5601 5600 5599 5598 5598 5597 5597 5597 5597 5597 5598 5598
5589 5591 5593 5595 5596 5598 5599 5601 5602 5602 5603 5603 5602 5602 5602 5602 5601 5600 5599 5598 5597 5596 5595 5594 5593 5592 5592 5591 5590 5589 5589 5589 5588 5588 5588 5589 5589 5590
5577 5579 5581 5583 5585 5586 5587 5589 5590 5591 5591 5591 5591 5591 5591 5591 5590 5589 5588 5587 5586 5585 5585 5584 5583 5583 5582 5581 5581 5580 5580 5580 5580 5579 5580 5580 5580 5581
5565 5567 5569 5571 5572 5574 5575 5577 5578 5578 5579 5580 5580 5580 5580 5579 5579 5578 5578 5577 5576 5575 5575 5574 5573 5573 5572 5572 5571 5571 5571 5570 5570 5570 5570 5571 5571 5571
5553 5555 5557 5559 5561 5562 5564 5565 5566 5567 5568 5568 5569 5569 5568 5568 5568 5567 5567 5566 5566 5565 5565 5564 5564 5563 5563 5562 5562 5561 5561 5561 5561 5561 5561 5561 5561 5562
5541 5543 5545 5547 5549 5550 5552 5553 5555 5555 5556 5556 5557 5557 5557 5557 5557 5556 5556 5556 5555 5555 5554 5554 5553 5553 5553 5553 5552 5552 5551 5551 5551 5551 5551 5551 5551 5552
5529 5531 5533 5535 5537 5538 5540 5541 5543 5543 5544 5545 5545 5545 5546 5546 5546 5546 5545 5545 5545 5544 5544 5543 5543 5543 5543 5543 5542 5542 5542 5541 5541 5541 5541 5541 5541 5541
5517 5519 5521 5523 5525 5526 5528 5529 5530 5531 5532 5533 5533 5534 5534 5535 5535 5535 5534 5534 5534 5533 5533 5533 5533 5533 5533 5533 5532 5532 5531 5531 5531 5531 5531 5531 5530 5530
5505 5507 5509 5510 5512 5514 5515 5517 5518 5520 5520 5521 5522 5522 5523 5523 5523 5523 5523 5523 5523 5523 5522 5522 5522 5522 5522 5522 5521 5521 5520 5520 5520 5520 5520 5520 5519 5519
5493 5495 5496 5498 5500 5502 5503 5505 5506 5507 5508 5509 5510 5511 5511 5512 5512 5512 5512 5512 5512 5511 5511 5511 5511 5511 5511 5511 5510 5510 5509 5509 5508 5508 5508 5508 5508 5508